NOAA NWS Hourly Roundups by Site

Regional Weather Roundup for Upton, NY

To Select Another Site Choose from List

Select Site:  

000
ASUS41 KOKX 281414
RWROKX

Regional Weather Roundup
National Weather Service New York NY
1000 AM EDT SAT MAR 28 2020

Note: "FAIR" indicates few or no clouds below 12,000 feet with no
significant weather and/or obstructions to visibility.

NYZ071-072-176-178-NJZ106-104-281500-
New York City Metro Area

CITY           SKY/WX    TMP DP  RH WIND       PRES   REMARKS
Central Park   LGT RAIN  50  34  54 E6        30.17R
Bronx Lehman C   N/A     48  32  53 E12         N/A
LaGuardia Arpt LGT RAIN  47  38  71 NE12      30.15R
Queens College   N/A     52  30  43 E6          N/A
Kennedy Intl   LGT RAIN  50  34  54 E16       30.17R
Breezy Point     N/A     46 N/A N/A E9          N/A
Brooklyn Coll    N/A     48  36  61 E9          N/A
Staten Island    N/A     48  41  76 E7          N/A
Newark/Liberty LGT RAIN  50  37  61 E8        30.15R
Teterboro      CLOUDY    49  30  48 E5        30.14R
$$

NYZ177-179-078>081-281500-
Long Island New York

CITY           SKY/WX    TMP DP  RH WIND       PRES   REMARKS
Jones Beach      N/A     46 N/A N/A E14G20      N/A
Wantagh          N/A     50  34  53 E9          N/A
Hempstead      NOT AVBL
Matinecock Pt    N/A     45 N/A N/A E15         N/A
Farmingdale    CLOUDY    52  28  39 E13       30.15R
MacArthur/ISP  CLOUDY    51  27  39 E14       30.15R
Stony Brook      N/A     50  30  46 E5          N/A
Shirley        FAIR      52  26  36 VRB6      30.17R
Mt Sinai Harb    N/A    N/A N/A N/A E7          N/A
Westhampton    FAIR      49  27  42 E9        30.18R
East Hampton   FAIR      48  29  48 E12       30.17R
Southold         N/A     46  34  61 E8          N/A
Montauk          N/A     47  33  58 E8        30.18R
$$

NYZ052-065-067-281500-
Hudson Valley

CITY           SKY/WX    TMP DP  RH WIND       PRES   REMARKS
White Plains   CLOUDY    48  23  37 E10       30.13S
Larchmont Harb   N/A     45 N/A N/A NE17        N/A
Croton On Huds   N/A     48 N/A N/A SE6G13      N/A
Somers           N/A     48  23  37 E10         N/A
Brewster         N/A     46  25  42 SE3         N/A
Newburgh       PTSUNNY   46  28  49 E7        30.14R
Montgomery     PTSUNNY   45  31  58 N5        30.13F
Otisville        N/A     45  28  53 NE5         N/A
Warwick          N/A     48  27  43 SE6         N/A
Suffern          N/A     48  27  43 E3          N/A
Poughkeepsie   FAIR      44  31  60 CALM      30.14F
Albany         CLOUDY    40  29  64 CALM      30.16S
$$

NJZ001-105-106-008-010-013-015-019>022-104-281500-
New Jersey

CITY           SKY/WX    TMP DP  RH WIND       PRES   REMARKS
Newark/Liberty LGT RAIN  50  37  61 E8        30.15R
Teterboro      CLOUDY    49  30  48 E5        30.14R
Caldwell       LGT RAIN  50  32  50 E5        30.15R
Somerville     LGT RAIN  45  43  93 CALM      30.12R FOG
Linden         LGT RAIN  50  39  67 CALM      30.15R
Perth Amboy      N/A     46 N/A N/A E9          N/A
Sussex         CLOUDY    47  29  49 CALM      30.13S
Andover          N/A     44  35  70 CALM      30.12S
Trenton        RAIN      44  40  85 E7        30.11R FOG
Millville      LGT RAIN  49  46  90 NE8       30.12R FOG
Atlantic City  HVY RAIN  51  46  83 NE5       30.13
Wrightstown    RAIN      47  43  88 CALM      30.15R
Toms River     RAIN      47  44  90 NW5       30.17R
Belmar         LGT RAIN  47  46  97 NW7       30.18R
$$

PAZ047>061-062-071-281500-
Eastern Pennsylvania

CITY           SKY/WX    TMP DP  RH WIND       PRES   REMARKS
Philadelphia   LGT RAIN  51  47  86 E12       30.07
Allentown      LGT RAIN  45  37  73 E12       30.08F
Scranton       RAIN      44  34  67 E6        30.06F
$$

CTZ002-004>006-009-010-012-RIZ004-006-007-MAZ004-011-015-281500-
Southern New England

 In CT

CITY           SKY/WX    TMP DP  RH WIND       PRES   REMARKS
Bradley Intl   PTSUNNY   43  26  51 NW5       30.19R
Hartford       FAIR      43  29  57 CALM      30.20R
Danbury        PTSUNNY   46  27  47 E6        30.15S
Wtrbury/Oxford PTSUNNY   45  23  42 SE6       30.16R
Norwalk Harbor   N/A     45 N/A N/A NE17        N/A
Bridgeport     FAIR      48  28  46 E13       30.16R
Meriden        FAIR      46  26  45 N5        30.18R
New Haven      CLOUDY    50  22  33 E6        30.17R
Chester        FAIR     N/A N/A N/A E5        30.18R
Groton         FAIR      47  25  42 E9        30.18R
Willimantic    FAIR      41  29  62 SW3       30.19R

 In RI

CITY           SKY/WX    TMP DP  RH WIND       PRES   REMARKS
Providence     PTSUNNY   47  22  37 VRB6      30.19R
Block Island   PTSUNNY   45  32  61 NE7       30.18R
Westerly       FAIR      50  22  33 E9        30.19R

In MA

CITY           SKY/WX    TMP DP  RH WIND       PRES   REMARKS
Boston         FAIR      45  20  36 SE5       30.20R
Worcester      FAIR      45  16  31 E7        30.15S
Westfield      FAIR      41  26  55 CALM      30.18R
Provincetown   FAIR      50  30  46 SE8       30.21R
Nantucket      FAIR      50  33  52 SE12      30.19R
$$

ANZ330-335-338-340-345-350-353-355-281500-
Coastal Marine Observations


STATION/POSITION TIME  SKY/WX   TEMP    WIND        PRES    VSBY  WAVE
                                AIR SEA DIR/SP/G                  HT/PER
                 (UTC)          (F)     (DEG/KT/KT) (MB)    (MI)  (FT/S)
NY Harb Entrance 1350            46      80/  8/ 10 1020.5          3/11
20 S Fire Island 1350            46 45              1020.1          3/ 7
Great South Bay  NOT AVBL
23 SSW Montauk P NOT AVBL
15 E Barnegat Li 1400               47                N/A           3/11
Hudson Canyon    1350               45              1020.0          2/ 6
Kings Point      1330            46 51   80/  6/  9 1021.7
Execution Rocks  1345            45 32   50/ 14/ 16   N/A
Western LI Sound 1320            45      60/ 12/ 16   N/A           1/ 3
Central LI Sound NOT AVBL
Robbins Reef     1330            51     100/ 15/ 18 1020.3
$$


>>>>>>>>>>>>>>>>>>>>>>>>>>>> KEY <<<<<<<<<<<<<<<<<<<<<<<<<<<
>                                                          <
>     SKY/WX - Sky Condition/Present Weather               <
>     TMP    - Temperature in Fahrenheit                   <
>     DP     - Dew Point in Fahrenheit                     <
>     RH     - Relative Humidity in Percent                <
>     WIND   - Direction (from) and Speed in MPH           <
>     PRES   - Mean Sea Level Pressure (inches of Hg)      <
>     WCI    - Wind Chill Index                            <
>     VSB    - Visibility in Miles                         <
>     HX     - Heat Index                                  <
>     TC     - Temperature in Celsius                      <
>     VRB    - Variable Wind Direction                     <
>                                                          <
>>>>>>>>>>>>>>>>>>>>>>>>>>>> KEY <<<<<<<<<<<<<<<<<<<<<<<<<<<



 

View Past Reports for Upton, NY.

Products Courtesy of NOAA-NWS
NWS Information Parsing Script by Ken True at Saratoga Weather - Script by SE Lincoln Weather.